Station LJAC1 - 9410230 - La Jolla, CA Image indicating link to RSS feed of recent meteorological observations for station LJAC1


Conditions at LJAC1 as of
(9:00 pm PDT on 06/20/2024)
0400 GMT on 06/21/2024:
     

Click on the graph icon in the table below to see a time series plot of the last five days of that observation.

5-day plot - Wind Direction Wind Direction (WDIR): N ( 350 deg true )
5-day plot - Wind Speed Wind Speed (WSPD): 2.9 kts
5-day plot - Wind Gust Wind Gust (GST): 5.1 kts
5-day plot - Atmospheric Pressure Atmospheric Pressure (PRES):29.78 in
5-day plot - Pressure Tendency Pressure Tendency (PTDY):+0.00 in ( Steady )
5-day plot - Air Temperature Air Temperature (ATMP): 64.6 °F
5-day plot - Water Temperature Water Temperature (WTMP): 68.4 °F
5-day plot - Wind Speed at 10 Meters Wind Speed at 10 meters (WSPD10M): 3.9 kts
5-day plot - Wind Speed at 20 Meters Wind Speed at 20 meters (WSPD20M): 3.9 kts
5-day plot -  Wind Speed, Wind Gust and Atmospheric Pressure Combined plot of Wind Speed, Gust, and Air Pressure
NOS Water Level Observation Network Water Level
Previous observations
TIME
(PDT)
5-day plot - Wind Direction
WDIR
 
5-day plot - Wind Speed
WSPD
kts
5-day plot - Wind Gust
GST
kts
5-day plot - Wave Height
WVHT
ft
5-day plot - Dominant Wave Period
DPD
sec
5-day plot - Average Wave Period
APD
sec
5-day plot - Mean Wave Direction
MWD
 
5-day plot - Atmospheric Pressure
PRES
in
5-day plot - Pressure Tendency
PTDY
in
5-day plot - Air Temperature
ATMP
°F
5-day plot - Water Temperature
WTMP
°F
5-day plot - Dew Point
DEWP
°F
5-day plot - Salinity
SAL
psu
5-day plot - Visibility
VIS
nmi
5-day plot - Tide (above MLLW)
TIDE
ft
2024-06-20 08:54 pmWNW 5.1 6.0----29.78- 64.6 68.5----
2024-06-20 08:48 pmWNW 4.1 5.1----29.78-- 68.5----
2024-06-20 08:42 pmNNW 4.1 5.1----29.78- 64.4 68.5----
2024-06-20 08:36 pmNNW 2.9 4.1----29.78- 64.4 68.5----
2024-06-20 08:30 pmNNW 2.9 4.1----29.78- 64.6 68.5----
2024-06-20 08:24 pm NW 1.9 2.9----29.78- 64.4 68.5----
2024-06-20 08:18 pm NW 2.9 4.1----29.78-------
2024-06-20 08:12 pmNNW 2.9 4.1----29.78- 64.6 68.7----
2024-06-20 08:06 pm N 2.9 4.1----29.77- 64.4 68.7----
2024-06-20 08:00 pm NW 2.9 4.1----29.77-0.01 64.8 68.7----
2024-06-20 07:54 pmWNW 2.9 4.1----29.77- 64.6 68.7----
2024-06-20 07:48 pmNNW 1.9 4.1----29.77- 64.4 68.7----
2024-06-20 07:42 pmNNW 4.1 6.0----29.77- 64.4 68.7----
2024-06-20 07:36 pmWNW 5.1 6.0----29.78- 64.6 68.7----
2024-06-20 07:30 pm NW 5.1 6.0----29.78- 64.2 68.7----
2024-06-20 07:24 pm NW 4.1 7.0----29.78- 64.4 68.7----
2024-06-20 07:18 pm NW 6.0 7.0----29.78-- 68.5----
2024-06-20 07:12 pm NW 6.0 6.0----29.78- 64.6 68.5----
2024-06-20 07:06 pm NW 6.0 7.0----29.78- 64.6 68.5----
2024-06-20 07:00 pm NW 6.0 7.0----29.78-0.02 64.2 68.4----
2024-06-20 06:54 pm NW 5.1 7.0----29.78- 64.4 68.4----
2024-06-20 06:48 pmWNW 6.0 8.0----29.78- 64.6 68.2----
2024-06-20 06:42 pmWNW 6.0 8.9----29.78- 64.6 68.0----
2024-06-20 06:36 pmWNW 7.0 8.0----29.78- 64.6 67.8----
2024-06-20 06:30 pm NW 7.0 8.0----29.78- 64.4 67.8----
2024-06-20 06:24 pmWNW 7.0 9.9----29.78- 64.6 67.6----
2024-06-20 06:18 pm NW 7.0 8.9----29.78-- 67.3----
2024-06-20 06:12 pm NW 7.0 8.9----29.78- 64.9 66.9----
2024-06-20 06:06 pmWNW 7.0 8.9----29.78- 65.3 66.7----
2024-06-20 06:00 pmWNW 6.0 8.0----29.78-0.04 65.3 66.2----
2024-06-20 05:54 pmWNW 7.0 8.0----29.77- 65.1 65.7----
2024-06-20 05:48 pmWNW 6.0 8.9----29.77-- 65.1----
2024-06-20 05:42 pmWNW 6.0 8.0----29.78- 65.7 64.6----
2024-06-20 05:36 pmWNW 7.0 8.9----29.78- 65.3 63.9----
2024-06-20 05:30 pmWNW 7.0 8.0----29.78- 65.3 63.1----
2024-06-20 05:24 pmWNW 6.0 8.0----29.78- 65.8 62.4----
2024-06-20 05:18 pmWNW 6.0 8.0----29.78- 65.8 61.3----
2024-06-20 05:12 pmWNW 6.0 8.0----29.78- 65.8 60.6----
2024-06-20 05:06 pmWNW 5.1 7.0----29.78- 65.8 60.3----
2024-06-20 05:00 pmWNW 6.0 8.0----29.78-0.04 65.8 60.4----
2024-06-20 04:54 pmWNW 6.0 7.0----29.78- 65.7 60.4----
2024-06-20 04:48 pmWNW 7.0 8.0----29.78- 65.8 60.6----
2024-06-20 04:42 pmWNW 5.1 7.0----29.78- 66.4 61.7----
2024-06-20 04:36 pmWNW 6.0 8.0----29.79- 66.0 62.1----
2024-06-20 04:30 pmWNW 5.1 8.0----29.79- 66.0 62.4----
2024-06-20 04:24 pmWNW 6.0 7.0----29.79- 66.2 62.6----
2024-06-20 04:18 pmWNW 6.0 7.0----29.79-------
2024-06-20 04:12 pmWNW 5.1 7.0----29.79- 66.2 62.8----
2024-06-20 04:06 pmWNW 7.0 8.0----29.80- 65.8 62.8----
2024-06-20 04:00 pmWNW 5.1 8.0----29.80-0.04 66.0 62.6----
2024-06-20 03:54 pmWNW 5.1 7.0----29.80- 66.0 62.6----
2024-06-20 03:48 pmWNW 5.1 7.0----29.80- 66.0 62.8----
2024-06-20 03:42 pmWNW 4.1 7.0----29.80- 66.2 62.6----
2024-06-20 03:36 pmWNW 4.1 6.0----29.80- 66.2 63.0----
2024-06-20 03:30 pmWNW 5.1 7.0----29.80-- 63.1----
2024-06-20 03:24 pmWNW 2.9 6.0----29.80-- 63.3----
2024-06-20 03:18 pmWNW 4.1 7.0----29.81-------
2024-06-20 03:12 pmWNW 7.0 8.0----29.81-------
2024-06-20 03:06 pm W 4.1 8.0----29.81-------
2024-06-20 03:00 pmWNW 7.0 8.0----29.81-0.03 65.5 66.6----
2024-06-20 02:54 pmWNW 6.0 8.9----29.81- 65.5 67.6----
2024-06-20 02:48 pmWNW 5.1 7.0----29.81- 66.0 68.0----
2024-06-20 02:42 pm W 4.1 7.0----29.82- 65.8 68.0----
2024-06-20 02:36 pmWNW 6.0 7.0----29.82- 65.7 67.8----
2024-06-20 02:30 pmWNW 4.1 6.0----29.82- 66.0 67.8----
2024-06-20 02:24 pmWNW 5.1 6.0----29.82- 65.8 67.8----
2024-06-20 02:18 pmWNW 5.1 8.0----29.82- 65.3 67.8----
2024-06-20 02:12 pmWNW 6.0 7.0----29.82- 65.5 67.8----
2024-06-20 02:06 pmWNW 4.1 6.0----29.82- 65.8 67.8----
2024-06-20 02:00 pmWNW 5.1 7.0----29.82-0.02 65.7 67.8----
2024-06-20 01:54 pmWNW 6.0 8.0----29.82- 65.3 67.6----
2024-06-20 01:48 pmWNW 5.1 7.0----29.83-- 67.6----
2024-06-20 01:42 pmWNW 5.1 7.0----29.83- 65.5 67.6----
2024-06-20 01:36 pmWNW 5.1 6.0----29.83- 65.3 67.5----
2024-06-20 01:30 pmWNW 4.1 7.0----29.83- 65.7 67.5----
2024-06-20 01:24 pmWNW 6.0 8.0----29.83- 65.1 67.5----
2024-06-20 01:18 pmWNW 5.1 7.0----29.83- 65.3 67.3----
2024-06-20 01:12 pm W 5.1 7.0----29.84- 65.3 67.1----
2024-06-20 01:06 pmWNW 5.1 7.0----29.84- 65.1 67.1----
2024-06-20 01:00 pmWNW 4.1 7.0----29.84+0.00 65.3 66.9----
2024-06-20 12:54 pm W 6.0 7.0----29.84- 64.8 66.9----
2024-06-20 12:48 pmWNW 6.0 8.0----29.84-- 66.9----
2024-06-20 12:42 pm W 5.1 7.0----29.85- 65.1 66.9----
2024-06-20 12:36 pm W 6.0 7.0----29.85- 65.3 66.9----
2024-06-20 12:30 pmWNW 5.1 8.0----29.85-- 66.9----
2024-06-20 12:24 pm W 5.1 7.0----29.85-- 66.9----
2024-06-20 12:18 pmWNW 6.0 8.0----29.85- 65.5 66.7----
2024-06-20 12:12 pm W 6.0 7.0----29.84- 65.5 66.7----
2024-06-20 12:06 pm W 4.1 7.0----29.85- 65.5 66.7----
2024-06-20 12:00 pmWNW 5.1 6.0----29.85+0.01 65.7 66.7----
2024-06-20 11:54 amWNW 5.1 6.0----29.85- 65.8 66.7----
2024-06-20 11:48 amWNW 5.1 6.0----29.85- 65.7 66.7----
2024-06-20 11:42 amWNW 5.1 6.0----29.84- 65.7 66.7----
2024-06-20 11:36 am W 5.1 6.0----29.84- 65.3 66.7----
2024-06-20 11:30 am W 2.9 6.0----29.84- 65.7 66.7----
2024-06-20 11:24 am W 5.1 7.0----29.84- 64.9 66.6----
2024-06-20 11:18 am W 6.0 7.0----29.84- 64.8 66.6----
2024-06-20 11:12 am W 6.0 7.0----29.84- 64.9 66.6----
2024-06-20 11:06 am W 6.0 7.0----29.84- 64.9 66.6----
2024-06-20 11:00 am W 6.0 7.0----29.84+0.01 65.1 66.6----
2024-06-20 10:54 amWNW 4.1 6.0----29.84- 65.7 66.6----
2024-06-20 10:48 am W 4.1 5.1----29.84-- 66.6----
2024-06-20 10:42 am W 4.1 5.1----29.84- 65.5 66.6----
2024-06-20 10:36 amWNW 4.1 5.1----29.84- 65.7 66.4----
2024-06-20 10:30 amWNW 2.9 5.1----29.84- 66.0 66.4----
2024-06-20 10:24 amWNW 4.1 5.1----29.84- 65.8 66.4----
2024-06-20 10:18 amWNW 4.1 5.1----29.84- 66.0 66.4----
2024-06-20 10:12 amWNW 4.1 5.1----29.84- 66.0 66.4----
2024-06-20 10:06 amWNW 4.1 5.1----29.84- 65.8 66.4----
2024-06-20 10:00 amWNW 4.1 4.1----29.83+0.02 65.7 66.2----
2024-06-20 09:54 am NW 2.9 4.1----29.83- 65.5 66.2----
2024-06-20 09:48 am NW 2.9 4.1----29.83- 65.5 66.2----
2024-06-20 09:42 am NW 2.9 4.1----29.83- 64.8 66.2----
2024-06-20 09:36 am NW 4.1 4.1----29.83- 64.4 66.2----
2024-06-20 09:30 am NW 4.1 5.1----29.83- 64.4 66.2----
2024-06-20 09:24 am NW 5.1 5.1----29.83- 64.2 66.2----
2024-06-20 09:18 amNNW 2.9 4.1----29.83-- 66.2----
2024-06-20 09:12 am N 1.9 2.9----29.83- 64.2 66.2----
2024-06-20 09:06 am N 2.9 4.1----29.83- 64.2 66.2----
2024-06-20 09:00 am N 2.9 4.1----29.83+0.03 64.0 66.2----
2024-06-20 08:54 am N 2.9 4.1----29.83- 64.2 66.2----
2024-06-20 08:48 amNNW 2.9 4.1----29.83- 64.2 66.2----
2024-06-20 08:42 am NW 1.9 2.9----29.83- 64.4 66.2----
2024-06-20 08:36 am NW 1.9 2.9----29.83- 64.4 66.2----
2024-06-20 08:30 amWSW 1.9 2.9----29.83- 64.2 66.2----
2024-06-20 08:24 am W 1.9 1.9----29.83- 64.2 66.0----
2024-06-20 08:18 amWSW 1.0 1.0----29.83-- 66.0----
2024-06-20 08:12 am- 0.0 1.0----29.83- 64.8 66.0----
2024-06-20 08:06 am- 0.0 0.0----29.83- 64.6 66.0----
2024-06-20 08:00 am- 0.0 1.9----29.83+0.03 64.0 66.0----
2024-06-20 07:54 am- 0.0 1.9----29.83- 64.0 66.0----
2024-06-20 07:48 amWNW 1.0 1.9----29.83- 63.9 66.0----
2024-06-20 07:42 amWNW 1.0 1.9----29.82- 63.7 66.2----
2024-06-20 07:36 am- 0.0 1.9----29.82- 63.5 66.2----
2024-06-20 07:30 amNNE 2.9 5.1----29.82- 63.3 66.0----
2024-06-20 07:24 am N 4.1 5.1----29.82- 63.3 66.0----
2024-06-20 07:18 am N 2.9 5.1----29.82-- 66.0----
2024-06-20 07:12 amNNE 5.1 6.0----29.82- 63.3 66.0----
2024-06-20 07:06 am N 2.9 4.1----29.82- 63.5 65.8----
2024-06-20 07:00 amNNW 1.0 1.9----29.82+0.02 63.1 65.8----
2024-06-20 06:54 amWNW 1.0 4.1----29.82- 63.1 65.8----
2024-06-20 06:48 am NW 2.9 2.9----29.82- 63.1 65.8----
2024-06-20 06:42 amWNW 1.9 4.1----29.82- 63.1 65.8----
2024-06-20 06:36 amNNW 4.1 5.1----29.81- 63.1 65.8----
2024-06-20 06:30 amNNW 4.1 5.1----29.81- 63.0 65.8----
2024-06-20 06:24 am N 2.9 5.1----29.81- 63.1 65.8----
2024-06-20 06:18 amNNW 2.9 4.1----29.81- 63.3 65.8----
2024-06-20 06:12 amWNW 2.9 5.1----29.81- 63.0 65.8----
2024-06-20 06:06 am NW 4.1 5.1----29.80- 63.0 65.8----
2024-06-20 06:00 amNNW 1.0 1.9----29.80+0.00 63.1 65.8----
2024-06-20 05:54 am- 0.0 1.9----29.80- 63.0 65.7----
2024-06-20 05:48 am- 0.0 1.9----29.80-- 65.7----
2024-06-20 05:42 am- 0.0 1.0----29.80- 63.0 65.7----
2024-06-20 05:36 amSSW 1.0 1.9----29.80- 63.0 65.7----
2024-06-20 05:30 amSSW 1.0 1.9----29.80- 63.0 65.7----
2024-06-20 05:24 am- 0.0 1.0----29.80- 63.0 65.5----
2024-06-20 05:18 amSSW 1.9 1.9----29.80- 63.0 65.5----
2024-06-20 05:12 am- 0.0 1.0----29.80- 63.0 65.5----
2024-06-20 05:06 am- 0.0 1.0----29.80- 62.8 65.7----
2024-06-20 05:00 am- 0.0 1.9----29.80-0.01 62.8 65.8----
2024-06-20 04:54 amWSW 1.9 4.1----29.80- 62.8 66.0----
2024-06-20 04:48 amWSW 2.9 5.1----29.80-- 66.0----
2024-06-20 04:42 am W 1.9 4.1----29.80- 63.0 66.2----
2024-06-20 04:36 amWNW 1.9 4.1----29.80- 63.0 66.4----
2024-06-20 04:30 am NW 1.0 2.9----29.80- 63.0 66.4----
2024-06-20 04:24 amNNW 2.9 4.1----29.80- 63.0 66.4----
2024-06-20 04:18 amNNW 2.9 4.1----29.80- 63.0 66.6----
2024-06-20 04:12 am W 4.1 5.1----29.80- 62.8 66.6----
2024-06-20 04:06 am W 2.9 5.1----29.79- 63.0 66.6----
2024-06-20 04:00 am W 4.1 5.1----29.80-0.03 62.8 66.6----
2024-06-20 03:54 am W 2.9 5.1----29.80- 63.1 66.6----
2024-06-20 03:48 am W 4.1 5.1----29.80- 63.0 66.6----
2024-06-20 03:42 am W 2.9 4.1----29.80- 63.0 66.6----
2024-06-20 03:36 am NW 2.9 5.1----29.80- 63.1 66.6----
2024-06-20 03:30 amNNW 4.1 5.1----29.80- 63.1 66.6----
2024-06-20 03:24 am W 1.9 4.1----29.80- 63.0 66.6----
2024-06-20 03:18 amWNW 1.9 4.1----29.80-- 66.6----
2024-06-20 03:12 am W 1.0 1.9----29.80- 63.1 66.6----
2024-06-20 03:06 am- 0.0 2.9----29.80- 63.1 66.6----
2024-06-20 03:00 am- 0.0 2.9----29.80-0.04 63.1 66.7----
2024-06-20 02:54 am NW 2.9 4.1----29.81- 63.0 66.7----
2024-06-20 02:48 am W 1.9 1.9----29.81- 63.0 66.7----
2024-06-20 02:42 amNNW 2.9 5.1----29.80- 63.0 66.7----
2024-06-20 02:36 amNNW 2.9 4.1----29.81- 63.1 66.7----
2024-06-20 02:30 am- 0.0 1.0----29.81- 63.0 66.7----
2024-06-20 02:24 am N 1.9 6.0----29.81- 63.0 66.7----
2024-06-20 02:18 amNNE 6.0 7.0----29.81- 63.0 66.9----
2024-06-20 02:12 amNNE 4.1 6.0----29.81- 63.1 66.9----
2024-06-20 02:06 amWNW 1.0 2.9----29.81- 63.1 66.9----
2024-06-20 02:00 am NW 2.9 2.9----29.81-0.04 63.0 66.9----
2024-06-20 01:54 amNNW 2.9 5.1----29.81- 63.0 66.9----
2024-06-20 01:48 amNNW 2.9 7.0----29.81- 63.0 66.9----
2024-06-20 01:42 amNNW 6.0 8.0----29.82- 63.0 67.1----
2024-06-20 01:36 am NW 4.1 6.0----29.82- 63.3 67.1----
2024-06-20 01:30 am NW 4.1 6.0----29.82- 63.1 67.1----
2024-06-20 01:24 amNNW 4.1 4.1----29.82- 63.1 67.1----
2024-06-20 01:18 am- 0.0 2.9----29.82- 63.1 67.1----
2024-06-20 01:12 amNNE 4.1 8.0----29.83- 63.0 67.1----
2024-06-20 01:06 am N 6.0 8.0----29.83- 63.1 67.1----
2024-06-20 01:00 am NW 4.1 5.1----29.83-0.02 63.3 67.3----
2024-06-20 12:54 am NW 4.1 5.1----29.83- 63.1 67.3----
2024-06-20 12:48 amWNW 1.9 2.9----29.83-- 67.3----
2024-06-20 12:42 am NW 1.9 2.9----29.83- 63.1 67.3----
2024-06-20 12:36 am NW 1.9 2.9----29.83- 63.1 67.3----
2024-06-20 12:30 amWNW 1.0 5.1----29.84- 63.3 67.3----
2024-06-20 12:24 am NW 5.1 6.0----29.84- 63.1 67.3----
2024-06-20 12:18 am N 4.1 7.0----29.84-------
2024-06-20 12:12 amNNW 7.0 7.0----29.84- 63.1 67.3----
2024-06-20 12:06 amNNW 5.1 6.0----29.84- 63.7 67.1----
2024-06-20 12:00 am NW 4.1 6.0----29.84+0.00 63.3 67.1----
2024-06-19 11:54 pmNNW 5.1 6.0----29.84- 63.1 67.3----
2024-06-19 11:48 pmNNW 2.9 5.1----29.84-------
2024-06-19 11:42 pmWNW 2.9 4.1----29.84- 63.3 67.3----
2024-06-19 11:36 pm NW 4.1 5.1----29.85- 63.3 67.3----
2024-06-19 11:30 pm NW 4.1 5.1----29.85- 63.3 67.3----
2024-06-19 11:24 pm N 1.9 5.1----29.85- 63.3 67.3----
2024-06-19 11:18 pm N 5.1 7.0----29.85-- 67.3----
2024-06-19 11:12 pm NW 5.1 6.0----29.85- 63.1 67.3----
2024-06-19 11:06 pmWNW 4.1 7.0----29.85- 63.1 67.3----
2024-06-19 11:00 pmNNW 5.1 6.0----29.85+0.01 63.3 67.3----
2024-06-19 10:54 pmWNW 5.1 9.9----29.85- 63.0 67.3----
2024-06-19 10:48 pm NW 7.0 8.0----29.85-------
2024-06-19 10:42 pm NW 5.1 7.0----29.85- 63.7 67.3----
2024-06-19 10:36 pmNNW 4.1 7.0----29.85- 63.3 67.3----
2024-06-19 10:30 pmNNW 5.1 8.0----29.85- 63.1 67.3----
2024-06-19 10:24 pmNNW 5.1 8.0----29.85- 63.1 67.3----
2024-06-19 10:18 pm N 5.1 6.0----29.85-------
2024-06-19 10:12 pmNNW 5.1 6.0----29.85- 63.1 67.3----
2024-06-19 10:06 pmNNW 5.1 6.0----29.85- 63.1 67.3----
2024-06-19 10:00 pm NW 4.1 5.1----29.85+0.02 63.1 67.3----
2024-06-19 09:54 pm NW 4.1 6.0----29.85- 63.0 67.5----
2024-06-19 09:48 pm NW 6.0 7.0----29.85-- 67.5----
2024-06-19 09:42 pmWNW 4.1 7.0----29.85- 63.0 67.5----
2024-06-19 09:36 pmWNW 6.0 7.0----29.85- 63.0 67.5----
2024-06-19 09:30 pmWNW 5.1 6.0----29.85- 63.1 67.5----
2024-06-19 09:24 pm NW 4.1 5.1----29.85- 63.0 67.5----
2024-06-19 09:18 pm NW 5.1 7.0----29.85- 62.8 67.5----
2024-06-19 09:12 pm NW 4.1 7.0----29.84- 62.8 67.5----
2024-06-19 09:06 pmNNW 5.1 7.0----29.84- 62.8 67.5----
2024-06-19 09:00 pm NW 5.1 7.0----29.84+0.00 62.8 67.5----
2024-06-19 08:54 pm NW 6.0 7.0----29.84- 62.8 67.5----